Dewpoint
27 18 13 13 16 17 17 16 16 18 24 21 21 22 23 22 12 14 15 17 21 15 19 24 26 28 28 29 29 30 31 32 32 31 29 29 28 30 31 33 33 31 30 28
19 11 16 15 17 18 19 17 15 19 23 23 23 21 24 17 11 14 15 15 17 15 21 25 27 28 28 29 30 31 31 31 31 31 32 31 30 31 31 32 31 31 30 28
7 12 14 16 17 17 18 16 19 18 22 25 23 19 19 12 10 13 13 16 15 16 18 25 27 28 28 28 30 31 31 30 32 33 33 33 33 32 31 31 31 31 30 29
16 15 16 17 17 19 13 22 22 23 20 3 23 -1 20 17 13 11 12 12 15 16 21 25 27 27 28 28 29 30 31 33 34 34 32 30 29 29 31 31 32 32 30 28
9 17 18 18 19 21 18 24 24 23 23 23 21 17 18 22 14 11 11 10 12 16 20 24 26 27 28 27 29 32 33 33 34 33 32 31 31 31 32 31 30 29 29 28
17 20 21 21 21 21 24 26 23 24 25 12 18 19 15 20 17 10 11 11 13 16 17 25 26 27 28 30 32 33 33 32 32 31 31 31 30 31 30 29 28 29 29 27
25 21 20 22 22 26 25 19 -0 -1 10 2 21 19 17 21 12 10 11 13 16 18 19 23 25 26 29 31 33 33 32 31 30 29 29 28 28 28 27 27 27 27 27 26
-1 -4 22 21 24 21 23 17 1 -6 -5 3 22 15 18 18 15 16 21 25 28 25 21 21 24 26 30 32 33 32 32 31 31 30 29 29 28 28 28 28 28 27 27 26
8 11 19 20 23 26 22 21 20 16 18 18 15 18 23 13 20 24 26 29 30 30 27 26 26 28 31 33 33 32 32 31 30 30 30 29 29 29 28 28 28 27 27 27
21 8 21 20 22 24 24 24 19 18 5 5 15 17 15 11 18 26 27 28 28 30 28 28 29 32 34 34 34 33 32 30 30 29 28 28 29 30 29 29 28 27 27 26
25 20 17 21 20 18 23 21 22 20 18 10 8 9 23 19 19 26 27 27 27 28 27 30 31 32 32 31 30 29 28 27 27 28 27 27 27 27 27 26 26 26 27 26
27 22 16 15 22 21 23 21 22 14 13 21 20 18 28 26 27 27 27 28 29 26 24 25 26 26 26 26 26 26 25 25 25 26 25 25 25 25 25 25 26 27 26 27
26 21 13 11 18 22 24 23 20 24 22 20 17 16 29 30 28 27 27 27 28 24 26 26 26 25 25 27 29 27 26 25 26 25 24 23 23 24 25 25 26 26 26 26
30 25 15 9 8 19 20 22 23 23 22 20 21 21 25 29 29 28 29 29 28 26 28 29 29 30 31 29 25 25 25 25 25 24 22 21 22 23 24 25 25 25 25 24
26 22 23 23 23 22 22 20 23 24 24 23 23 23 24 26 29 30 30 28 28 28 29 29 29 26 24 24 24 24 24 25 25 23 21 20 22 23 24 24 23 23 23 24
26 24 24 23 24 24 23 24 22 24 25 26 25 25 26 29 31 29 29 28 28 28 28 28 26 24 23 23 24 24 24 24 23 21 19 20 21 22 22 22 21 22 23 23
24 25 25 19 23 24 20 23 25 24 23 24 24 25 28 27 28 28 29 29 28 27 27 26 24 23 23 24 24 23 23 23 19 18 18 18 20 19 20 21 20 20 21 22
28 26 26 20 22 12 16 22 21 23 24 25 26 26 27 27 28 28 28 28 27 26 26 25 25 25 23 23 23 23 21 17 17 15 15 18 18 18 20 19 19 20 20 19
28 26 22 18 18 16 20 23 23 23 22 25 24 25 26 27 26 26 28 26 26 26 26 28 28 27 22 21 21 21 15 13 13 12 14 16 17 18 19 18 18 18 19 19
27 28 24 21 15 11 19 24 28 27 18 26 26 24 24 25 20 22 27 28 28 28 29 29 29 25 21 20 16 13 12 12 10 12 15 17 17 18 18 18 18 19 19 19
18 19 17 17 15 14 25 28 29 17 16 25 21 20 19 22 19 22 27 26 26 28 27 25 23 20 17 11 11 10 11 9 11 15 15 16 17 17 17 17 18 18 18 19
15 9 12 15 11 7 26 25 15 20 24 22 21 21 21 23 23 24 24 22 22 22 18 15 14 15 12 6 8 9 8 10 13 13 15 15 15 16 16 17 18 18 18 18
7 11 11 14 8 21 27 24 28 25 22 21 22 23 24 24 23 23 22 19 19 15 12 10 12 8 5 4 6 7 8 10 12 13 13 13 14 15 16 17 18 19 18 18
13 17 15 15 14 20 25 27 27 25 23 22 23 24 25 20 22 21 21 18 14 11 10 10 7 4 4 3 4 5 6 10 10 11 12 13 14 16 17 17 17 17 18 17
10 14 14 16 16 22 25 26 26 25 25 24 24 24 23 20 20 19 19 17 13 9 10 6 4 3 4 4 5 5 6 8 9 11 12 13 14 15 15 16 17 17 18 19
16 13 12 9 13 16 18 25 25 25 24 24 23 19 20 20 18 19 17 14 11 10 7 4 3 3 5 4 5 5 4 6 9 10 11 12 14 15 16 16 16 17 19 19
Wind_Speed
3 2 5 3 2 3 3 1 6 5 2 10 3 14 16 6 7 13 15 12 1 5 3 9 11 11 12 12 15 17 16 13 14 8 7 5 4 3 3 4 5 5 5 6
1 5 4 6 3 2 1 3 6 7 2 5 8 17 4 3 3 6 10 11 5 4 6 9 12 13 15 17 16 15 15 14 12 9 5 3 4 3 3 4 4 4 5 5
4 1 4 2 2 2 2 4 3 4 11 2 12 3 1 2 0 6 9 8 7 2 8 10 13 14 14 17 17 16 14 14 10 9 11 8 7 6 4 3 2 2 4 4
1 1 3 2 3 4 5 1 1 5 9 7 7 6 5 4 2 5 9 12 11 4 5 9 14 15 16 14 12 14 14 13 10 11 7 7 5 4 3 4 3 4 4 4
3 5 4 4 2 4 2 2 2 3 2 4 1 3 4 1 6 1 6 9 10 7 5 12 14 14 11 14 15 14 13 11 9 7 7 7 6 4 4 4 6 4 5 5
2 0 1 3 3 3 7 3 5 4 2 4 2 3 5 9 8 6 3 7 10 9 2 8 10 10 11 12 14 15 15 11 10 10 8 9 9 8 7 5 4 3 2 2
1 2 1 1 3 2 2 2 5 4 3 8 3 3 14 6 3 4 6 5 9 9 4 7 14 15 14 15 14 14 14 12 10 10 9 9 9 8 7 5 4 3 2 2
4 7 3 1 2 3 5 3 4 7 7 4 0 10 6 3 4 6 7 7 8 12 7 5 9 14 15 15 15 14 14 13 10 11 11 10 9 9 7 6 4 3 2 2
5 5 1 3 1 1 3 6 3 4 2 3 6 6 7 6 5 5 7 7 9 10 10 7 7 12 14 14 13 13 13 12 11 12 11 10 9 9 7 6 4 2 1 1
3 5 0 2 2 4 3 4 2 0 6 10 7 8 15 16 14 9 6 6 6 7 10 9 8 10 11 12 12 12 14 15 13 12 11 10 8 6 5 4 4 3 3 3
4 3 2 2 9 9 5 5 2 2 4 7 9 8 3 12 17 16 8 4 4 6 9 10 11 12 13 14 15 17 17 17 14 11 9 9 8 7 7 6 6 6 6 7
2 3 8 6 1 2 1 4 9 8 6 5 3 16 5 5 9 11 7 3 3 6 9 10 15 16 18 16 15 16 15 15 11 9 10 9 9 9 8 8 7 7 8 8
5 2 5 5 0 1 5 5 4 4 3 13 13 11 3 4 7 10 13 10 6 8 12 14 14 16 16 15 13 12 11 11 9 9 9 8 8 7 7 7 7 8 8 8
4 3 11 23 11 4 8 10 11 11 9 12 30 28 10 14 15 12 13 10 10 9 11 13 14 12 12 12 12 10 9 8 9 9 9 9 9 9 9 9 9 9 9 10
3 10 12 20 19 13 21 19 16 20 22 27 34 28 14 20 25 22 14 11 11 11 12 11 12 10 10 10 9 8 8 8 8 8 8 8 7 6 7 7 9 9 9 8
2 12 3 18 14 21 33 21 18 28 29 27 32 36 3 1 14 13 13 12 11 11 10 9 8 8 8 7 7 6 5 6 6 7 8 8 9 8 8 8 9 8 8 9
5 6 6 27 6 15 21 15 25 15 11 13 26 21 8 8 13 11 10 9 10 10 10 8 7 6 6 5 4 5 5 6 8 8 8 9 10 11 12 12 12 13 12 11
13 7 5 21 10 15 5 2 4 6 6 6 3 5 7 12 9 10 6 6 8 11 9 7 4 3 2 3 4 4 5 6 8 10 11 10 11 12 11 11 11 12 11 12
6 5 6 7 9 18 6 4 4 3 5 1 6 7 6 8 7 4 6 6 10 9 6 4 2 3 4 4 2 3 7 9 10 10 10 9 9 11 10 11 11 11 11 11
1 4 6 3 10 9 1 3 3 3 8 7 5 7 7 7 8 2 5 5 6 5 4 4 5 5 2 1 5 7 9 9 10 8 9 9 9 10 11 11 11 8 9 12
4 2 8 13 10 10 1 2 2 4 3 6 8 6 7 4 2 5 6 3 1 3 6 6 6 2 2 7 5 6 7 10 9 8 10 10 9 10 11 11 10 11 12 11
4 4 6 1 5 13 3 3 3 3 3 8 8 6 8 9 6 7 7 7 6 5 2 2 2 1 3 4 3 7 10 9 9 10 10 11 10 10 9 10 12 11 11 12
6 9 4 9 10 4 6 8 6 11 10 11 11 10 9 10 9 9 8 7 7 4 1 0 1 4 8 5 2 8 8 10 10 10 11 11 11 10 10 11 11 11 10 11
5 5 10 6 4 12 7 5 8 9 12 10 7 10 10 8 9 8 7 7 5 2 1 1 3 6 9 8 7 8 11 9 10 11 12 11 11 12 10 10 10 10 11 11
7 4 9 13 15 11 10 14 15 13 9 10 9 10 12 10 7 8 8 6 3 1 0 2 5 8 10 10 12 12 9 7 9 9 10 11 10 12 13 12 12 11 12 13
8 9 8 16 10 11 11 13 14 16 16 15 13 9 5 8 8 7 7 4 4 4 2 4 6 7 10 11 14 14 11 7 8 9 9 10 11 11 12 12 15 16 16 18
Wind_Direction
22 197 235 206 129 127 131 224 283 274 6 337 304 304 311 328 5 9 4 5 175 228 224 183 183 177 170 172 170 169 163 157 146 136 137 131 150 128 120 122 108 101 91 71
39 238 151 121 103 114 118 283 288 286 337 338 325 314 284 331 20 7 1 12 19 142 146 155 160 164 174 171 170 166 166 159 161 148 139 132 145 133 126 136 117 117 109 92
213 127 132 138 144 203 244 246 276 282 322 50 332 330 187 226 342 21 27 17 26 176 168 165 165 168 162 168 170 169 167 162 156 138 120 95 94 94 110 131 144 131 109 93
133 126 157 156 226 173 268 115 96 337 357 308 13 285 250 222 275 30 21 25 20 17 157 169 171 170 173 171 161 157 153 148 146 148 145 153 154 157 164 154 143 126 86 92
229 171 178 210 235 179 213 77 65 74 61 331 324 207 247 238 229 172 34 24 16 355 199 175 180 176 169 156 155 146 136 127 126 126 131 134 126 113 111 100 110 90 59 65
120 67 146 158 104 90 140 93 53 63 77 253 209 194 256 194 203 164 91 31 13 358 144 160 155 150 148 143 141 139 133 125 123 123 125 134 139 139 132 120 114 94 72 60
188 202 95 83 141 76 122 93 301 290 254 251 180 241 251 193 152 145 135 60 25 18 77 156 159 159 154 150 145 139 134 127 124 114 97 93 98 97 99 99 97 80 48 38
243 277 180 11 181 204 181 178 215 270 261 271 256 242 253 164 98 97 96 91 56 44 53 129 157 156 155 150 148 143 140 131 114 104 99 94 94 97 96 98 91 76 50 344
196 247 116 68 113 91 167 202 128 117 79 286 237 278 255 151 134 122 106 83 54 37 34 70 130 149 149 147 148 146 132 120 114 110 104 96 97 94 94 97 100 92 78 329
203 273 239 150 114 50 186 139 174 136 272 268 261 269 243 203 186 167 143 100 49 33 34 54 91 127 131 129 122 116 120 116 112 106 100 94 87 76 73 72 53 18 349 334
155 199 217 173 203 193 157 195 174 166 192 252 281 245 232 228 181 172 152 107 65 50 50 58 72 82 93 98 102 108 108 107 99 91 83 73 56 45 41 37 22 4 348 340
178 169 239 239 74 91 72 207 180 215 225 227 274 273 345 125 136 148 149 131 81 81 82 80 96 98 94 92 97 102 101 94 90 82 72 57 42 29 23 14 8 360 351 347
183 239 291 274 30 67 223 201 186 120 103 223 248 259 175 164 186 186 172 157 133 118 111 108 100 95 104 104 100 92 86 83 78 70 60 46 33 23 9 357 352 354 349 342
167 232 231 255 267 141 241 216 211 206 229 246 237 263 220 214 213 197 182 163 147 136 117 112 111 118 116 112 113 109 93 78 60 50 36 21 8 360 353 350 350 349 344 335
212 256 244 260 269 264 266 256 227 222 231 245 269 262 259 225 211 202 180 159 156 155 145 142 131 130 124 116 97 81 65 51 37 30 17 1 348 349 342 342 335 330 328 324
227 275 282 280 269 268 271 261 240 240 246 250 261 270 218 97 139 152 154 163 173 173 162 146 149 140 118 103 91 76 48 27 17 4 349 345 343 342 332 323 322 324 322 321
251 268 294 283 298 316 290 249 240 241 240 248 259 281 164 148 139 141 145 157 169 172 156 150 131 131 128 111 87 55 21 5 356 343 336 341 342 336 332 333 334 328 324 320
253 253 259 284 317 275 282 317 258 263 279 253 228 128 115 122 107 106 93 142 140 150 147 139 127 116 125 61 46 20 6 354 343 339 338 337 330 322 319 318 313 312 313 312
226 229 256 256 238 280 260 3 2 317 295 156 142 122 110 121 110 93 105 121 135 134 131 124 129 161 138 94 32 350 347 349 342 327 322 315 310 302 302 302 298 298 300 296
55 233 252 290 282 277 350 330 325 272 289 176 168 173 180 173 191 174 124 110 110 127 150 175 158 160 181 64 20 350 333 325 312 306 298 296 296 295 294 294 296 290 290 287
327 316 257 266 269 281 207 265 211 299 303 185 175 172 172 174 187 140 142 162 89 132 124 132 132 177 21 10 3 311 299 304 311 307 302 296 290 287 281 284 285 291 290 287
218 259 242 196 263 272 191 295 285 232 129 159 140 143 139 138 154 160 169 180 173 166 143 86 83 60 335 354 326 307 306 312 308 300 296 296 294 295 295 290 291 288 290 293
252 203 238 208 236 231 197 231 245 187 170 173 158 161 166 186 192 175 180 169 160 156 150 109 28 332 331 342 307 300 301 313 304 298 296 298 299 300 299 293 288 291 289 285
250 208 246 292 267 268 250 259 213 191 162 162 181 186 188 198 190 180 171 170 166 184 199 160 320 317 312 321 311 282 300 305 301 296 297 301 300 300 300 299 291 284 282 282
240 210 246 261 279 280 246 219 197 195 186 185 188 194 204 203 190 189 188 191 210 278 241 273 301 309 309 317 312 310 303 295 287 289 292 295 297 294 296 289 279 276 267 261
211 224 221 262 256 250 270 223 192 196 193 190 186 195 183 196 185 169 181 189 203 221 246 294 306 305 310 318 311 309 307 290 283 292 293 292 293 289 288 283 290 288 284 284